[[{"header":{"parameterUnit":"m.s-1","parameterCategory":1,"la1":30.2991,"la2":30.254,"lo1":-89.0895,"lo2":-89.0444,"dy":0.0017,"dx":0.0017,"nx":28,"ny":28,"refTime":"2026-02-11T09:00:00:Z","depth":0,"parameterNumber":2,"parameterNumberName":"U-component_of_WINDS"},"data":[0,0,0,0,0,0,0,0,0,0,0,0,0,0,0,0,0,0,0,0,0,0,0,0,0,0,0,0,0,0,0,0,0,0,0,0,0,0,0,0,0,0,0,0,0,0,0,0,0,0,0,0,0,0,0,0,0,0,1.3585,1.3586,0,1.367,1.3671,1.3672,1.3665,1.3664,1.3663,1.3662,1.3753,1.3756,1.376,0,0,0,0,0,0,0,0,0,0,0,0,0,1.342,1.3423,1.3585,1.3586,1.3587,1.367,1.3671,1.3673,1.3666,1.3664,1.3662,1.3661,1.3751,1.3756,1.376,0,0,0,0,0,0,0,0,0,0,0,0,0,1.3497,1.3424,1.3585,1.3594,1.3595,1.367,1.3672,1.3673,1.3666,1.3664,1.3662,1.366,1.375,1.3755,1.3761,1.3833,0,0,1.3777,1.378,0,0,0,0,0,0,0,0,1.3493,1.3504,1.3591,1.3593,1.3595,1.3655,1.3647,1.3727,1.3666,1.3639,1.3662,1.3659,1.3722,1.373,1.375,1.3838,1.3841,1.3778,1.3781,1.3783,1.3785,0,0,0,0,0,0,0,1.3488,1.35,1.3619,1.3593,1.3595,1.3595,1.3603,1.3662,1.3691,1.3642,1.3641,1.3651,1.3723,1.3745,1.3752,1.3843,1.3778,1.3782,1.3786,1.3788,1.3995,1.3997,0,0,0,0,0,0,1.348,1.3495,1.3616,1.3622,1.3538,1.3599,1.3609,1.3638,1.369,1.3696,1.3653,1.3651,1.3736,1.3746,1.3755,1.3844,1.3783,1.3789,1.3792,1.3993,1.3996,1.3998,0,0,0,0,0,0,1.3476,1.3491,1.3613,1.3558,1.3574,1.3604,1.3637,1.3641,1.3663,1.3698,1.3704,1.367,1.3735,1.3748,1.3814,1.3847,1.3791,1.3796,1.399,1.3994,1.3997,1.4022,0,0,0,0,0,0,1.3472,1.3489,1.3516,1.3559,1.3577,1.3669,1.3639,1.3644,1.3672,1.367,1.3716,1.3722,1.3735,1.3806,1.3819,1.3854,1.38,1.3988,1.3992,1.3996,1.4019,1.4026,1.4033,0,0,0,0,0,1.3466,1.3521,1.3518,1.3532,1.3611,1.3671,1.3681,1.3694,1.3674,1.3702,1.3725,1.372,1.3841,1.3813,1.3828,1.3864,1.3986,1.3991,1.3996,1.4016,1.4025,1.4032,0,0,0,0,0,0,1.3483,1.3527,1.3524,1.3594,1.3629,1.3669,1.3705,1.3703,1.3745,1.3741,1.3757,1.3767,1.3834,1.3856,1.3823,1.3938,1.3911,1.3919,1.3921,1.393,1.3937,1.393,1.3805,0,0,0,0,0,1.3494,1.3538,1.3574,1.3633,1.365,1.3675,1.3701,1.3708,1.3745,1.376,1.3788,1.3825,1.3872,1.3902,1.3947,1.4022,1.4032,1.4055,1.4062,1.4067,1.4074,1.4116,1.4127,1.4015,1.4015,1.4015,0,0,1.3519,1.3549,1.3575,1.3637,1.3665,1.3711,1.3687,1.3737,1.3772,1.3768,1.3832,1.3854,1.3897,1.3968,1.4,1.3988,1.4108,1.4073,1.4078,1.4082,1.4123,1.4133,1.4143,1.4018,1.4018,1.4017,0,0,1.3588,1.3614,1.3666,1.3694,1.3736,1.3752,1.3764,1.3806,1.382,1.3884,1.3882,1.3925,1.4004,1.4035,1.4061,1.4142,1.4139,1.4156,1.4193,1.4234,1.4242,1.425,1.428,1.429,1.4163,1.4163,1.4163,0,1.3614,1.3682,1.3693,1.3743,1.3771,1.3769,1.3822,1.3849,1.3904,1.3924,1.3909,1.4009,1.4038,1.4116,1.4136,1.4157,1.4172,1.4151,1.424,1.4248,1.4256,1.4284,1.4295,1.4165,1.4165,1.4165,1.4165,0,1.3712,1.376,1.3797,1.3849,1.388,1.3932,1.3952,1.3984,1.3988,1.4006,1.4072,1.4106,1.4158,1.4177,1.4182,1.4257,1.4248,1.4236,1.421,1.4268,1.4295,1.4306,1.4168,1.4167,1.4167,1.4166,0,0,1.3794,1.3851,1.3865,1.3888,1.3934,1.3972,1.4024,1.4074,1.41,1.4139,1.4183,1.4251,1.4241,1.427,1.4279,1.4315,1.4378,1.4299,1.43,1.4313,1.4463,1.4471,1.4484,1.4376,1.4378,1.438,1.446,0,1.3868,1.3958,1.397,1.4051,1.4096,1.4095,1.414,1.4174,1.4192,1.4234,1.4255,1.4303,1.4285,1.4303,1.4338,1.4362,1.4408,1.4357,1.4419,1.4421,1.4408,1.4498,1.4507,1.458,1.447,1.4472,1.4473,0,1.3966,1.4005,1.409,1.4131,1.415,1.419,1.4237,1.4276,1.4316,1.4327,1.436,1.4364,1.4419,1.439,1.4467,1.4432,1.4458,1.4474,1.4477,1.4484,1.4451,1.4507,1.4604,1.4615,1.449,1.4488,1.4487,0,1.4017,1.4092,1.4153,1.4173,1.4222,1.425,1.4272,1.4309,1.4338,1.438,1.4399,1.4447,1.4473,1.4511,1.4528,1.4505,1.4605,1.4577,1.4617,1.4616,1.4638,1.4636,1.4741,1.4654,1.4654,1.4654,1.4654,0,1.4099,1.4151,1.4176,1.4214,1.4273,1.4286,1.4345,1.4366,1.4399,1.4441,1.4444,1.4484,1.4505,1.4548,1.4563,1.4625,1.4637,1.4648,1.4651,1.4648,1.4647,1.4666,1.4661,1.4657,1.4656,1.4656,1.4655,0,1.4166,1.4185,1.4251,1.4291,1.4303,1.4345,1.438,1.4417,1.4435,1.4489,1.4502,1.4531,1.4583,1.4604,1.4668,1.4677,1.4749,1.4748,1.4735,1.4736,1.4775,1.4771,1.4895,1.4913,1.4815,1.4815,1.4816,0,1.4216,1.4256,1.4301,1.4329,1.4351,1.4396,1.4426,1.4442,1.4473,1.4521,1.4552,1.4603,1.4645,1.4728,1.4756,1.4805,1.4805,1.4846,1.4813,1.4808,1.4807,1.4804,1.4808,1.4852,1.4853,1.4853,1.4854,0,1.4304,1.4312,1.4354,1.4399,1.4434,1.4471,1.4507,1.4531,1.4552,1.4587,1.4639,1.4672,1.4736,1.4788,1.4838,1.4862,1.4863,1.4864,1.4876,1.4873,1.4864,1.487,1.4752,1.4861,1.4861,1.486,1.486,1.4859,1.4365,1.4401,1.4437,1.4484,1.4513,1.4547,1.4584,1.4606,1.4649,1.4702,1.4709,1.4765,1.4805,1.4872,1.4899,1.4944,1.4934,1.4951,1.4955,1.4959,1.4962,1.4857,1.4953,1.4953,1.4953,1.4953,1.4953,0,1.4453,1.4477,1.452,1.457,1.4607,1.4602,1.4643,1.4674,1.4723,1.4759,1.48,1.4861,1.4911,1.4942,1.4993,1.5023,1.5024,1.5036,1.5034,1.504,1.4968,1.4952,1.5034,1.5034,1.5034,1.5034,1.5034,1.5034,1.4503,1.4563,1.4575,1.465,1.4674,1.4728,1.4751,1.4783,1.4812,1.4879,1.492,1.494,1.4975,1.5028,1.5074,1.5082,1.5101,1.5113,1.5121,1.5053,1.5045,1.5037,1.5022,1.5117,1.5117,1.5189,1.519,1.519]},{"header":{"parameterUnit":"m.s-1","parameterCategory":1,"la1":30.2991,"la2":30.254,"lo1":-89.0895,"lo2":-89.0444,"dy":0.0017,"dx":0.0017,"nx":28,"ny":28,"refTime":"2026-02-11T09:00:00:Z","depth":0,"parameterNumber":3,"parameterNumberName":"V-component_of_WINDS"},"data":[0,0,0,0,0,0,0,0,0,0,0,0,0,0,0,0,0,0,0,0,0,0,0,0,0,0,0,0,0,0,0,0,0,0,0,0,0,0,0,0,0,0,0,0,0,0,0,0,0,0,0,0,0,0,0,0,0,0,0.5665,0.5666,0,0.5732,0.5733,0.5734,0.5766,0.5766,0.5766,0.5766,0.5836,0.5838,0.584,0,0,0,0,0,0,0,0,0,0,0,0,0,0.5566,0.5567,0.5665,0.5666,0.5667,0.5732,0.5733,0.5734,0.5766,0.5766,0.5766,0.5766,0.5835,0.5838,0.584,0,0,0,0,0,0,0,0,0,0,0,0,0,0.5618,0.5568,0.5665,0.5691,0.5694,0.5732,0.5733,0.5734,0.5766,0.5766,0.5766,0.5766,0.5835,0.5837,0.584,0.5858,0,0,0.5849,0.585,0,0,0,0,0,0,0,0,0.5615,0.5622,0.5686,0.5689,0.5692,0.5741,0.5724,0.5776,0.5766,0.5739,0.5766,0.5766,0.5804,0.581,0.5822,0.5861,0.5864,0.5849,0.5851,0.5852,0.5853,0,0,0,0,0,0,0,0.5612,0.5619,0.5692,0.5687,0.5691,0.5699,0.5707,0.5734,0.5771,0.5741,0.5744,0.5751,0.5806,0.582,0.5824,0.5865,0.5849,0.5851,0.5853,0.5854,0.5923,0.5923,0,0,0,0,0,0,0.5604,0.5616,0.569,0.5694,0.5653,0.5701,0.5709,0.5725,0.5771,0.5778,0.5751,0.5752,0.5815,0.5821,0.5827,0.5851,0.5852,0.5854,0.5856,0.5923,0.5923,0.5923,0,0,0,0,0,0,0.5602,0.561,0.5687,0.5656,0.5666,0.5703,0.5721,0.5727,0.574,0.5778,0.5785,0.5758,0.5815,0.5823,0.585,0.5854,0.5856,0.5858,0.5922,0.5923,0.5923,0.59,0,0,0,0,0,0,0.5599,0.5609,0.5616,0.5656,0.5668,0.5709,0.5721,0.5728,0.5745,0.5747,0.5787,0.5793,0.5816,0.5846,0.5853,0.5858,0.5861,0.5922,0.5923,0.5923,0.59,0.5899,0.5898,0,0,0,0,0,0.5595,0.5607,0.5616,0.5625,0.5677,0.5709,0.5716,0.5741,0.5745,0.5753,0.5777,0.5792,0.5852,0.5848,0.5857,0.5863,0.5922,0.5923,0.5923,0.5901,0.5899,0.5898,0,0,0,0,0,0,0.5568,0.5613,0.5623,0.5649,0.5675,0.5714,0.5725,0.5739,0.5765,0.5766,0.5797,0.5805,0.583,0.5849,0.5843,0.5882,0.5889,0.5891,0.5869,0.5868,0.5867,0.5862,0.5863,0,0,0,0,0,0.5564,0.5586,0.5624,0.5643,0.5655,0.5688,0.5702,0.572,0.5748,0.5759,0.5786,0.5813,0.5838,0.5854,0.5879,0.5903,0.5912,0.5911,0.591,0.5909,0.5911,0.5925,0.5925,0.5924,0.5924,0.5924,0,0,0.5558,0.5585,0.5597,0.5638,0.566,0.5682,0.5697,0.572,0.5736,0.5763,0.579,0.581,0.5843,0.5868,0.5881,0.5885,0.5913,0.5909,0.5908,0.5911,0.5925,0.5925,0.5925,0.5924,0.5924,0.5924,0,0,0.5558,0.5581,0.5599,0.5621,0.5654,0.5675,0.568,0.5717,0.5731,0.5759,0.578,0.58,0.5843,0.5865,0.5882,0.589,0.5905,0.5897,0.5892,0.5905,0.5905,0.5905,0.5909,0.5909,0.5899,0.5899,0.5899,0,0.5547,0.558,0.5607,0.5628,0.5646,0.567,0.5689,0.5709,0.5749,0.576,0.5764,0.5818,0.5842,0.5873,0.5875,0.5888,0.5894,0.5893,0.5903,0.5904,0.5904,0.5908,0.5909,0.5898,0.5898,0.5898,0.5898,0,0.5564,0.5587,0.5598,0.5636,0.5654,0.5674,0.5704,0.572,0.5735,0.5756,0.5784,0.5813,0.5845,0.5853,0.5869,0.5887,0.5888,0.5897,0.5904,0.5903,0.5906,0.5908,0.5896,0.5896,0.5897,0.5897,0,0,0.555,0.5601,0.5605,0.5622,0.566,0.5679,0.57,0.573,0.5743,0.577,0.5789,0.5824,0.5833,0.5852,0.587,0.5882,0.5886,0.5889,0.5891,0.5888,0.5908,0.5902,0.5903,0.5896,0.5897,0.5897,0.5906,0,0.5555,0.5594,0.5618,0.5647,0.5669,0.5693,0.5711,0.5737,0.5757,0.5779,0.5801,0.5825,0.5835,0.5846,0.5859,0.5883,0.5891,0.5883,0.5914,0.5915,0.5906,0.5905,0.5898,0.5905,0.5907,0.5908,0.5908,0,0.5567,0.5593,0.5624,0.566,0.567,0.5686,0.5716,0.5736,0.5766,0.578,0.5801,0.5819,0.5843,0.5847,0.588,0.5874,0.5888,0.5902,0.5903,0.5907,0.5912,0.5909,0.5907,0.5908,0.591,0.591,0.591,0,0.5554,0.5596,0.562,0.5634,0.5677,0.5687,0.5706,0.5735,0.5752,0.5778,0.5789,0.5818,0.5834,0.5856,0.5881,0.5882,0.5912,0.5918,0.5924,0.5923,0.593,0.5929,0.5931,0.5938,0.5938,0.5938,0.5938,0,0.5558,0.5576,0.5615,0.563,0.5651,0.5678,0.5699,0.5719,0.5745,0.5764,0.5786,0.5804,0.5837,0.5859,0.5879,0.5903,0.591,0.5922,0.5927,0.592,0.5919,0.5931,0.5931,0.5938,0.5938,0.5938,0.5938,0,0.5547,0.5573,0.5601,0.5639,0.5648,0.5662,0.5695,0.571,0.5731,0.5756,0.5763,0.5796,0.5823,0.585,0.5887,0.59,0.5924,0.5931,0.5914,0.5917,0.5922,0.5921,0.5931,0.5934,0.5939,0.5939,0.5939,0,0.5548,0.5562,0.5601,0.5616,0.5633,0.5656,0.5673,0.5701,0.5718,0.5752,0.5764,0.5792,0.5817,0.5859,0.5886,0.5914,0.5922,0.5924,0.5926,0.5919,0.5923,0.5921,0.5923,0.5923,0.5922,0.5922,0.5922,0,0.5547,0.5559,0.5583,0.5611,0.5631,0.5654,0.5679,0.569,0.5722,0.574,0.5768,0.5786,0.5823,0.5852,0.5883,0.5902,0.5918,0.5921,0.5924,0.5917,0.5907,0.5913,0.5912,0.5921,0.5921,0.5921,0.5921,0.5921,0.5542,0.5556,0.5586,0.5611,0.5633,0.5655,0.5671,0.5694,0.5717,0.575,0.5765,0.5792,0.5822,0.5865,0.5884,0.5906,0.591,0.5914,0.5916,0.5916,0.5915,0.5903,0.5912,0.5912,0.5912,0.5912,0.5912,0,0.5543,0.5563,0.5586,0.5619,0.564,0.5652,0.568,0.5696,0.572,0.5746,0.5769,0.5801,0.5828,0.5857,0.5887,0.5899,0.5907,0.5905,0.5905,0.5909,0.5909,0.5904,0.5899,0.5899,0.5899,0.5899,0.5899,0.5899,0.5546,0.557,0.5586,0.5621,0.5641,0.5668,0.5683,0.5704,0.5724,0.5759,0.5781,0.58,0.5828,0.5859,0.5884,0.5892,0.5902,0.5899,0.5909,0.5908,0.5909,0.591,0.5905,0.5901,0.5901,0.5908,0.5908,0.5908]}]]